Wetterdaten: Sonntag, 02.03.2014
Datum Zeit Temp. Auen Feucht Auen Luftdruck Regen Richtung Richtung Windben
02.03.2014 00:00 1,8 C 90 % 1002,1 hPa 0,0 mm W 274 0,0 km/h (0 Bft)
02.03.2014 00:05 1,8 C 91 % 1002,1 hPa 0,0 mm W 274 0,0 km/h (0 Bft)
02.03.2014 00:10 2,0 C 91 % 1002,0 hPa 0,0 mm W 274 0,0 km/h (0 Bft)
02.03.2014 00:15 2,3 C 91 % 1002,1 hPa 0,0 mm W 274 0,0 km/h (0 Bft)
02.03.2014 00:20 2,3 C 91 % 1002,2 hPa 0,0 mm W 274 0,0 km/h (0 Bft)
02.03.2014 00:25 2,4 C 90 % 1002,1 hPa 0,0 mm W 274 0,0 km/h (0 Bft)
02.03.2014 00:30 2,4 C 90 % 1002,1 hPa 0,0 mm W 274 0,0 km/h (0 Bft)
02.03.2014 00:35 2,3 C 90 % 1002,0 hPa 0,0 mm W 274 0,0 km/h (0 Bft)
02.03.2014 00:40 2,3 C 90 % 1002,0 hPa 0,0 mm W 274 3,2 km/h (1 Bft)
02.03.2014 00:45 2,4 C 91 % 1002,0 hPa 0,0 mm W 274 3,2 km/h (1 Bft)
02.03.2014 00:50 2,4 C 90 % 1002,0 hPa 0,0 mm W 274 3,2 km/h (1 Bft)
02.03.2014 00:55 2,5 C 90 % 1001,9 hPa 0,0 mm W 274 3,2 km/h (1 Bft)
02.03.2014 01:00 2,6 C 90 % 1002,0 hPa 0,0 mm W 274 3,2 km/h (1 Bft)
02.03.2014 01:05 2,4 C 90 % 1002,1 hPa 0,0 mm W 274 1,6 km/h (1 Bft)
02.03.2014 01:10 2,3 C 90 % 1002,1 hPa 0,0 mm W 274 1,6 km/h (1 Bft)
02.03.2014 01:15 2,3 C 90 % 1002,2 hPa 0,0 mm W 274 1,6 km/h (1 Bft)
02.03.2014 01:20 2,3 C 90 % 1002,2 hPa 0,0 mm W 274 1,6 km/h (1 Bft)
02.03.2014 01:25 2,4 C 90 % 1002,2 hPa 0,0 mm W 274 0,0 km/h (0 Bft)
02.03.2014 01:30 2,5 C 90 % 1002,2 hPa 0,0 mm W 274 1,6 km/h (1 Bft)
02.03.2014 01:35 2,3 C 90 % 1002,2 hPa 0,0 mm W 274 1,6 km/h (1 Bft)
02.03.2014 01:40 2,3 C 90 % 1002,2 hPa 0,0 mm W 274 1,6 km/h (1 Bft)
02.03.2014 01:45 2,3 C 90 % 1002,1 hPa 0,0 mm W 274 3,2 km/h (1 Bft)
02.03.2014 01:50 2,3 C 91 % 1001,9 hPa 0,0 mm W 274 1,6 km/h (1 Bft)
02.03.2014 01:55 2,3 C 90 % 1001,9 hPa 0,0 mm W 274 3,2 km/h (1 Bft)
02.03.2014 02:00 2,2 C 90 % 1002,0 hPa 0,0 mm W 274 1,6 km/h (1 Bft)
02.03.2014 02:05 2,2 C 91 % 1001,9 hPa 0,0 mm W 274 0,0 km/h (0 Bft)
02.03.2014 02:10 2,2 C 91 % 1001,9 hPa 0,0 mm W 274 0,0 km/h (0 Bft)
02.03.2014 02:15 2,2 C 91 % 1001,9 hPa 0,0 mm W 274 0,0 km/h (0 Bft)
02.03.2014 02:20 2,2 C 90 % 1001,9 hPa 0,0 mm W 274 0,0 km/h (0 Bft)
02.03.2014 02:25 2,1 C 90 % 1001,9 hPa 0,0 mm W 274 0,0 km/h (0 Bft)
02.03.2014 02:30 2,2 C 91 % 1002,0 hPa 0,0 mm W 274 1,6 km/h (1 Bft)
02.03.2014 02:35 2,1 C 91 % 1002,1 hPa 0,0 mm W 274 0,0 km/h (0 Bft)
02.03.2014 02:40 2,1 C 91 % 1002,0 hPa 0,0 mm W 274 1,6 km/h (1 Bft)
02.03.2014 02:45 2,1 C 91 % 1002,0 hPa 0,0 mm W 274 0,0 km/h (0 Bft)
02.03.2014 02:50 2,1 C 91 % 1001,9 hPa 0,0 mm W 274 1,6 km/h (1 Bft)
02.03.2014 02:55 2,1 C 91 % 1001,9 hPa 0,0 mm W 274 3,2 km/h (1 Bft)
02.03.2014 03:00 2,1 C 91 % 1002,0 hPa 0,0 mm W 262 4,8 km/h (1 Bft)
02.03.2014 03:05 2,2 C 91 % 1002,1 hPa 0,0 mm W 262 3,2 km/h (1 Bft)
02.03.2014 03:10 2,2 C 91 % 1001,9 hPa 0,0 mm W 262 1,6 km/h (1 Bft)
02.03.2014 03:15 2,3 C 91 % 1002,0 hPa 0,0 mm W 262 1,6 km/h (1 Bft)
02.03.2014 03:20 2,3 C 91 % 1001,9 hPa 0,0 mm W 262 3,2 km/h (1 Bft)
02.03.2014 03:25 2,3 C 91 % 1002,0 hPa 0,0 mm W 262 3,2 km/h (1 Bft)
02.03.2014 03:30 2,2 C 90 % 1002,0 hPa 0,0 mm W 262 1,6 km/h (1 Bft)
02.03.2014 03:35 2,2 C 91 % 1001,9 hPa 0,0 mm W 262 3,2 km/h (1 Bft)
02.03.2014 03:40 2,2 C 90 % 1001,8 hPa 0,0 mm W 262 3,2 km/h (1 Bft)
02.03.2014 03:45 2,2 C 90 % 1001,8 hPa 0,0 mm W 262 1,6 km/h (1 Bft)
02.03.2014 03:50 2,2 C 90 % 1001,9 hPa 0,0 mm W 262 1,6 km/h (1 Bft)
02.03.2014 03:55 2,2 C 90 % 1001,9 hPa 0,0 mm W 262 0,0 km/h (0 Bft)
02.03.2014 04:00 1,9 C 90 % 1002,1 hPa 0,0 mm W 262 0,0 km/h (0 Bft)
02.03.2014 04:05 2,1 C 91 % 1001,9 hPa 0,0 mm W 262 1,6 km/h (1 Bft)
02.03.2014 04:10 2,2 C 91 % 1002,0 hPa 0,0 mm W 262 1,6 km/h (1 Bft)
02.03.2014 04:15 2,3 C 91 % 1001,9 hPa 0,0 mm W 262 0,0 km/h (0 Bft)
02.03.2014 04:20 2,3 C 91 % 1001,9 hPa 0,0 mm W 262 3,2 km/h (1 Bft)
02.03.2014 04:25 2,3 C 90 % 1001,8 hPa 0,0 mm W 262 3,2 km/h (1 Bft)
02.03.2014 04:30 2,4 C 90 % 1001,9 hPa 0,0 mm W 262 3,2 km/h (1 Bft)
02.03.2014 04:35 2,5 C 91 % 1001,9 hPa 0,0 mm W 262 0,0 km/h (0 Bft)
02.03.2014 04:40 2,6 C 90 % 1001,8 hPa 0,0 mm W 262 0,0 km/h (0 Bft)
02.03.2014 04:45 2,5 C 90 % 1001,9 hPa 0,0 mm W 262 1,6 km/h (1 Bft)
02.03.2014 04:50 2,5 C 90 % 1002,0 hPa 0,0 mm W 262 0,0 km/h (0 Bft)
02.03.2014 04:55 2,6 C 91 % 1001,9 hPa 0,0 mm W 262 3,2 km/h (1 Bft)
02.03.2014 05:00 2,6 C 91 % 1002,1 hPa 0,0 mm W 262 3,2 km/h (1 Bft)
02.03.2014 05:05 2,7 C 91 % 1002,1 hPa 0,0 mm W 262 3,2 km/h (1 Bft)
02.03.2014 05:10 2,8 C 90 % 1002,1 hPa 0,0 mm W 262 0,0 km/h (0 Bft)
02.03.2014 05:15 2,8 C 90 % 1002,2 hPa 0,0 mm W 263 3,2 km/h (1 Bft)
02.03.2014 05:20 2,9 C 90 % 1002,2 hPa 0,0 mm W 263 3,2 km/h (1 Bft)
02.03.2014 05:25 3,0 C 90 % 1002,3 hPa 0,0 mm W 263 3,2 km/h (1 Bft)
02.03.2014 05:30 3,0 C 90 % 1002,4 hPa 0,0 mm W 263 1,6 km/h (1 Bft)
02.03.2014 05:35 3,1 C 90 % 1002,4 hPa 0,0 mm W 263 0,0 km/h (0 Bft)
02.03.2014 05:40 3,1 C 90 % 1002,5 hPa 0,0 mm W 263 1,6 km/h (1 Bft)
02.03.2014 05:45 3,1 C 90 % 1002,6 hPa 0,0 mm W 263 3,2 km/h (1 Bft)
02.03.2014 05:50 3,1 C 90 % 1002,6 hPa 0,0 mm W 263 1,6 km/h (1 Bft)
02.03.2014 05:55 3,1 C 90 % 1002,6 hPa 0,0 mm W 263 1,6 km/h (1 Bft)
02.03.2014 06:00 3,2 C 90 % 1002,6 hPa 0,0 mm W 263 0,0 km/h (0 Bft)
02.03.2014 06:05 3,2 C 90 % 1002,6 hPa 0,0 mm W 263 1,6 km/h (1 Bft)
02.03.2014 06:10 3,2 C 90 % 1002,6 hPa 0,0 mm W 263 1,6 km/h (1 Bft)
02.03.2014 06:15 3,2 C 90 % 1002,8 hPa 0,0 mm W 263 1,6 km/h (1 Bft)
02.03.2014 06:20 3,2 C 90 % 1002,8 hPa 0,0 mm W 263 0,0 km/h (0 Bft)
02.03.2014 06:25 3,3 C 90 % 1002,8 hPa 0,0 mm W 263 0,0 km/h (0 Bft)
02.03.2014 06:30 3,3 C 90 % 1002,9 hPa 0,0 mm W 263 0,0 km/h (0 Bft)
02.03.2014 06:35 3,3 C 90 % 1003,0 hPa 0,0 mm W 263 0,0 km/h (0 Bft)
02.03.2014 06:40 3,3 C 90 % 1003,0 hPa 0,0 mm W 263 0,0 km/h (0 Bft)
02.03.2014 06:45 3,3 C 90 % 1003,0 hPa 0,0 mm W 263 0,0 km/h (0 Bft)
02.03.2014 06:50 3,4 C 90 % 1003,0 hPa 0,0 mm W 263 0,0 km/h (0 Bft)
02.03.2014 06:55 3,4 C 90 % 1003,1 hPa 0,0 mm W 263 0,0 km/h (0 Bft)
02.03.2014 07:00 3,4 C 90 % 1003,1 hPa 0,0 mm W 263 0,0 km/h (0 Bft)
02.03.2014 07:05 3,5 C 90 % 1003,3 hPa 0,0 mm W 263 0,0 km/h (0 Bft)
02.03.2014 07:10 3,5 C 90 % 1003,3 hPa 0,0 mm W 263 0,0 km/h (0 Bft)
02.03.2014 07:15 3,5 C 90 % 1003,3 hPa 0,0 mm W 263 0,0 km/h (0 Bft)
02.03.2014 07:20 3,6 C 90 % 1003,4 hPa 0,0 mm W 263 0,0 km/h (0 Bft)
02.03.2014 07:25 3,6 C 90 % 1003,3 hPa 0,0 mm W 263 0,0 km/h (0 Bft)
02.03.2014 07:30 3,7 C 90 % 1003,4 hPa 0,0 mm W 263 0,0 km/h (0 Bft)
02.03.2014 07:35 3,7 C 90 % 1003,5 hPa 0,0 mm W 263 0,0 km/h (0 Bft)
02.03.2014 07:40 3,8 C 90 % 1003,7 hPa 0,0 mm W 263 1,6 km/h (1 Bft)
02.03.2014 07:45 3,8 C 90 % 1003,7 hPa 0,0 mm W 264 3,2 km/h (1 Bft)
02.03.2014 07:50 3,8 C 90 % 1003,7 hPa 0,0 mm W 267 3,2 km/h (1 Bft)
02.03.2014 07:55 3,8 C 90 % 1003,8 hPa 0,0 mm W 267 3,2 km/h (1 Bft)
02.03.2014 08:00 3,8 C 90 % 1003,8 hPa 0,0 mm W 267 4,8 km/h (1 Bft)
02.03.2014 08:05 3,8 C 90 % 1003,8 hPa 0,0 mm W 267 3,2 km/h (1 Bft)
02.03.2014 08:10 3,9 C 90 % 1003,8 hPa 0,0 mm W 267 3,2 km/h (1 Bft)
02.03.2014 08:15 3,9 C 90 % 1003,9 hPa 0,0 mm W 267 1,6 km/h (1 Bft)
02.03.2014 08:20 3,9 C 89 % 1004,0 hPa 0,0 mm W 267 4,8 km/h (1 Bft)
02.03.2014 08:25 3,9 C 89 % 1004,0 hPa 0,0 mm W 268 1,6 km/h (1 Bft)
02.03.2014 08:30 3,9 C 89 % 1004,0 hPa 0,0 mm W 267 3,2 km/h (1 Bft)
02.03.2014 08:35 4,0 C 89 % 1004,0 hPa 0,0 mm W 267 4,8 km/h (1 Bft)
02.03.2014 08:40 4,1 C 89 % 1004,2 hPa 0,0 mm W 267 4,8 km/h (1 Bft)
02.03.2014 08:45 4,1 C 89 % 1004,3 hPa 0,0 mm W 267 1,6 km/h (1 Bft)
02.03.2014 08:50 4,2 C 89 % 1004,2 hPa 0,0 mm W 268 3,2 km/h (1 Bft)
02.03.2014 08:55 4,2 C 89 % 1004,3 hPa 0,0 mm W 271 8,0 km/h (2 Bft)
02.03.2014 09:00 4,3 C 88 % 1004,3 hPa 0,0 mm W 277 8,0 km/h (2 Bft)
02.03.2014 09:05 4,3 C 88 % 1004,3 hPa 0,0 mm W 271 4,8 km/h (1 Bft)
02.03.2014 09:10 4,4 C 88 % 1004,3 hPa 0,0 mm W 276 4,8 km/h (1 Bft)
02.03.2014 09:15 4,4 C 88 % 1004,4 hPa 0,0 mm W 281 6,4 km/h (2 Bft)
02.03.2014 09:20 4,4 C 88 % 1004,4 hPa 0,0 mm W 264 4,8 km/h (1 Bft)
02.03.2014 09:25 4,4 C 88 % 1004,4 hPa 0,0 mm W 281 8,0 km/h (2 Bft)
02.03.2014 09:30 4,5 C 88 % 1004,3 hPa 0,0 mm W 264 9,7 km/h (2 Bft)
02.03.2014 09:35 4,6 C 87 % 1004,4 hPa 0,0 mm W 278 6,4 km/h (2 Bft)
02.03.2014 09:40 4,6 C 87 % 1004,5 hPa 0,0 mm W-NW 286 8,0 km/h (2 Bft)
02.03.2014 09:45 4,8 C 87 % 1004,5 hPa 0,0 mm W 281 3,2 km/h (1 Bft)
02.03.2014 09:50 4,9 C 87 % 1004,5 hPa 0,0 mm W 263 6,4 km/h (2 Bft)
02.03.2014 09:55 5,0 C 87 % 1004,6 hPa 0,0 mm W 263 3,2 km/h (1 Bft)
02.03.2014 10:00 5,0 C 87 % 1004,6 hPa 0,0 mm W-SW 251 8,0 km/h (2 Bft)
02.03.2014 10:05 5,0 C 86 % 1004,6 hPa 0,0 mm W-NW 284 6,4 km/h (2 Bft)
02.03.2014 10:10 5,1 C 86 % 1004,7 hPa 0,0 mm W 273 8,0 km/h (2 Bft)
02.03.2014 10:15 5,1 C 86 % 1004,8 hPa 0,0 mm W 273 6,4 km/h (2 Bft)
02.03.2014 10:20 5,1 C 86 % 1004,8 hPa 0,0 mm W-SW 257 6,4 km/h (2 Bft)
02.03.2014 10:25 5,1 C 86 % 1004,8 hPa 0,0 mm W-NW 287 8,0 km/h (2 Bft)
02.03.2014 10:30 5,1 C 86 % 1004,9 hPa 0,0 mm W 265 6,4 km/h (2 Bft)
02.03.2014 10:35 5,0 C 86 % 1005,0 hPa 0,0 mm W 271 8,0 km/h (2 Bft)
02.03.2014 10:40 5,0 C 86 % 1005,0 hPa 0,0 mm W 266 6,4 km/h (2 Bft)
02.03.2014 10:45 4,9 C 86 % 1005,0 hPa 0,0 mm W 264 8,0 km/h (2 Bft)
02.03.2014 10:50 4,9 C 86 % 1005,0 hPa 0,0 mm W 281 6,4 km/h (2 Bft)
02.03.2014 10:55 4,9 C 86 % 1005,0 hPa 0,0 mm W 269 4,8 km/h (1 Bft)
02.03.2014 11:00 4,9 C 86 % 1005,1 hPa 0,0 mm W 276 4,8 km/h (1 Bft)
02.03.2014 11:05 4,9 C 86 % 1005,1 hPa 0,0 mm W-SW 254 6,4 km/h (2 Bft)
02.03.2014 11:10 4,9 C 86 % 1005,1 hPa 0,0 mm W 273 6,4 km/h (2 Bft)
02.03.2014 11:15 4,9 C 86 % 1005,1 hPa 0,0 mm W-NW 290 6,4 km/h (2 Bft)
02.03.2014 11:20 5,0 C 86 % 1005,1 hPa 0,0 mm W 279 4,8 km/h (1 Bft)
02.03.2014 11:25 5,1 C 86 % 1005,2 hPa 0,0 mm W 265 6,4 km/h (2 Bft)
02.03.2014 11:30 5,0 C 86 % 1005,1 hPa 0,0 mm W 270 4,8 km/h (1 Bft)
02.03.2014 11:35 5,1 C 86 % 1005,1 hPa 0,0 mm W 273 3,2 km/h (1 Bft)
02.03.2014 11:40 5,2 C 86 % 1005,2 hPa 0,0 mm W 274 6,4 km/h (2 Bft)
02.03.2014 11:45 5,2 C 86 % 1005,2 hPa 0,0 mm W 263 6,4 km/h (2 Bft)
02.03.2014 11:50 5,2 C 86 % 1005,2 hPa 0,0 mm W 277 4,8 km/h (1 Bft)
02.03.2014 11:55 5,2 C 86 % 1005,2 hPa 0,0 mm W 271 4,8 km/h (1 Bft)
02.03.2014 12:00 5,2 C 86 % 1005,3 hPa 0,0 mm W 270 4,8 km/h (1 Bft)
02.03.2014 12:05 5,2 C 86 % 1005,2 hPa 0,0 mm W 267 3,2 km/h (1 Bft)
02.03.2014 12:10 5,2 C 86 % 1005,2 hPa 0,0 mm W 259 4,8 km/h (1 Bft)
02.03.2014 12:15 5,2 C 86 % 1005,2 hPa 0,0 mm W 261 6,4 km/h (2 Bft)
02.03.2014 12:20 5,2 C 86 % 1005,1 hPa 0,0 mm W 265 6,4 km/h (2 Bft)
02.03.2014 12:25 5,2 C 86 % 1005,1 hPa 0,0 mm W 260 4,8 km/h (1 Bft)
02.03.2014 12:30 5,3 C 86 % 1005,1 hPa 0,0 mm W 277 4,8 km/h (1 Bft)
02.03.2014 12:35 5,4 C 86 % 1005,1 hPa 0,0 mm W 281 4,8 km/h (1 Bft)
02.03.2014 12:40 5,4 C 86 % 1005,1 hPa 0,0 mm W 281 4,8 km/h (1 Bft)
02.03.2014 12:45 5,6 C 85 % 1005,0 hPa 0,0 mm W 281 3,2 km/h (1 Bft)
02.03.2014 12:50 5,6 C 85 % 1005,0 hPa 0,0 mm W 271 6,4 km/h (2 Bft)
02.03.2014 12:55 5,7 C 85 % 1004,9 hPa 0,0 mm W 267 4,8 km/h (1 Bft)
02.03.2014 13:00 5,8 C 85 % 1004,9 hPa 0,0 mm W-NW 284 4,8 km/h (1 Bft)
02.03.2014 13:05 5,7 C 85 % 1004,9 hPa 0,0 mm W 279 4,8 km/h (1 Bft)
02.03.2014 13:10 5,7 C 84 % 1004,8 hPa 0,0 mm W 270 6,4 km/h (2 Bft)
02.03.2014 13:15 5,7 C 84 % 1004,8 hPa 0,0 mm W 264 4,8 km/h (1 Bft)
02.03.2014 13:20 5,7 C 85 % 1004,9 hPa 0,0 mm W 267 3,2 km/h (1 Bft)
02.03.2014 13:25 5,8 C 84 % 1004,9 hPa 0,0 mm W 267 4,8 km/h (1 Bft)
02.03.2014 13:30 5,8 C 84 % 1004,9 hPa 0,0 mm W 267 3,2 km/h (1 Bft)
02.03.2014 13:35 5,8 C 84 % 1004,9 hPa 0,0 mm W 267 3,2 km/h (1 Bft)
02.03.2014 13:40 5,8 C 84 % 1004,9 hPa 0,0 mm W 267 1,6 km/h (1 Bft)
02.03.2014 13:45 5,7 C 84 % 1004,9 hPa 0,0 mm W 267 1,6 km/h (1 Bft)
02.03.2014 13:50 5,7 C 84 % 1004,9 hPa 0,0 mm W 267 3,2 km/h (1 Bft)
02.03.2014 13:55 5,7 C 85 % 1004,8 hPa 0,0 mm W 267 3,2 km/h (1 Bft)
02.03.2014 14:00 5,8 C 84 % 1004,8 hPa 0,0 mm W 267 3,2 km/h (1 Bft)
02.03.2014 14:05 5,9 C 84 % 1004,8 hPa 0,0 mm W 267 3,2 km/h (1 Bft)
02.03.2014 14:10 5,9 C 83 % 1004,8 hPa 0,0 mm W-SW 256 4,8 km/h (1 Bft)
02.03.2014 14:15 5,9 C 83 % 1004,8 hPa 0,0 mm W-SW 256 3,2 km/h (1 Bft)
02.03.2014 14:20 6,0 C 84 % 1004,8 hPa 0,0 mm W-SW 256 3,2 km/h (1 Bft)
02.03.2014 14:25 6,1 C 83 % 1004,8 hPa 0,0 mm W 268 4,8 km/h (1 Bft)
02.03.2014 14:30 6,2 C 83 % 1004,8 hPa 0,0 mm W 266 6,4 km/h (2 Bft)
02.03.2014 14:35 6,2 C 82 % 1004,8 hPa 0,0 mm W 264 6,4 km/h (2 Bft)
02.03.2014 14:40 6,2 C 82 % 1004,9 hPa 0,0 mm W-SW 258 8,0 km/h (2 Bft)
02.03.2014 14:45 6,2 C 82 % 1004,9 hPa 0,0 mm W 263 8,0 km/h (2 Bft)
02.03.2014 14:50 6,3 C 83 % 1004,9 hPa 0,0 mm W 262 4,8 km/h (1 Bft)
02.03.2014 14:55 6,3 C 82 % 1004,9 hPa 0,0 mm W 262 4,8 km/h (1 Bft)
02.03.2014 15:00 6,4 C 81 % 1004,8 hPa 0,0 mm W 272 4,8 km/h (1 Bft)
02.03.2014 15:05 6,4 C 82 % 1004,8 hPa 0,0 mm W 273 4,8 km/h (1 Bft)
02.03.2014 15:10 6,3 C 82 % 1004,9 hPa 0,0 mm W 265 6,4 km/h (2 Bft)
02.03.2014 15:15 6,4 C 81 % 1004,9 hPa 0,0 mm W 281 4,8 km/h (1 Bft)
02.03.2014 15:20 6,5 C 81 % 1004,8 hPa 0,0 mm W 281 3,2 km/h (1 Bft)
02.03.2014 15:25 6,4 C 81 % 1004,8 hPa 0,0 mm W 277 4,8 km/h (1 Bft)
02.03.2014 15:30 6,5 C 81 % 1004,8 hPa 0,0 mm W 277 3,2 km/h (1 Bft)
02.03.2014 15:35 6,6 C 81 % 1004,8 hPa 0,0 mm W-NW 287 4,8 km/h (1 Bft)
02.03.2014 15:40 6,6 C 81 % 1004,8 hPa 0,0 mm W 279 8,0 km/h (2 Bft)
02.03.2014 15:45 6,7 C 80 % 1004,9 hPa 0,0 mm W 280 4,8 km/h (1 Bft)
02.03.2014 15:50 6,7 C 80 % 1004,9 hPa 0,0 mm W 266 4,8 km/h (1 Bft)
02.03.2014 15:55 6,6 C 81 % 1004,9 hPa 0,0 mm W 264 4,8 km/h (1 Bft)
02.03.2014 16:00 6,7 C 80 % 1004,8 hPa 0,0 mm W 264 4,8 km/h (1 Bft)
02.03.2014 16:05 6,6 C 80 % 1004,9 hPa 0,0 mm W 270 4,8 km/h (1 Bft)
02.03.2014 16:10 6,5 C 80 % 1004,9 hPa 0,0 mm W 270 4,8 km/h (1 Bft)
02.03.2014 16:15 6,5 C 80 % 1004,8 hPa 0,0 mm W 270 3,2 km/h (1 Bft)
02.03.2014 16:20 6,5 C 79 % 1004,8 hPa 0,0 mm W 270 3,2 km/h (1 Bft)
02.03.2014 16:25 6,4 C 80 % 1004,8 hPa 0,0 mm W 270 3,2 km/h (1 Bft)
02.03.2014 16:30 6,5 C 81 % 1004,8 hPa 0,0 mm W 270 3,2 km/h (1 Bft)
02.03.2014 16:35 6,5 C 80 % 1004,8 hPa 0,0 mm W 270 3,2 km/h (1 Bft)
02.03.2014 16:40 6,4 C 80 % 1004,7 hPa 0,0 mm W 270 1,6 km/h (1 Bft)
02.03.2014 16:45 6,4 C 81 % 1004,7 hPa 0,0 mm W 270 3,2 km/h (1 Bft)
02.03.2014 16:50 6,4 C 80 % 1004,7 hPa 0,0 mm W 268 4,8 km/h (1 Bft)
02.03.2014 16:55 6,4 C 80 % 1004,6 hPa 0,0 mm W 268 0,0 km/h (0 Bft)
02.03.2014 17:00 6,4 C 80 % 1004,6 hPa 0,0 mm W 268 3,2 km/h (1 Bft)
02.03.2014 17:05 6,3 C 80 % 1004,6 hPa 0,0 mm W 268 1,6 km/h (1 Bft)
02.03.2014 17:10 6,3 C 80 % 1004,6 hPa 0,0 mm W 268 3,2 km/h (1 Bft)
02.03.2014 17:15 6,3 C 80 % 1004,6 hPa 0,0 mm W 270 3,2 km/h (1 Bft)
02.03.2014 17:20 6,3 C 80 % 1004,5 hPa 0,0 mm W 269 1,6 km/h (1 Bft)
02.03.2014 17:25 6,2 C 81 % 1004,5 hPa 0,0 mm W 269 0,0 km/h (0 Bft)
02.03.2014 17:30 6,2 C 81 % 1004,5 hPa 0,0 mm W 269 0,0 km/h (0 Bft)
02.03.2014 17:35 6,1 C 81 % 1004,5 hPa 0,0 mm W 269 1,6 km/h (1 Bft)
02.03.2014 17:40 5,9 C 81 % 1004,5 hPa 0,0 mm W 269 1,6 km/h (1 Bft)
02.03.2014 17:45 5,8 C 82 % 1004,5 hPa 0,0 mm W 269 0,0 km/h (0 Bft)
02.03.2014 17:50 5,7 C 83 % 1004,5 hPa 0,0 mm W 269 0,0 km/h (0 Bft)
02.03.2014 17:55 5,6 C 84 % 1004,4 hPa 0,0 mm W 269 0,0 km/h (0 Bft)
02.03.2014 18:00 5,4 C 84 % 1004,4 hPa 0,0 mm W 269 0,0 km/h (0 Bft)
02.03.2014 18:05 5,3 C 84 % 1004,3 hPa 0,0 mm W 269 0,0 km/h (0 Bft)
02.03.2014 18:10 5,2 C 85 % 1004,4 hPa 0,0 mm W 269 0,0 km/h (0 Bft)
02.03.2014 18:15 5,2 C 85 % 1004,4 hPa 0,0 mm W 269 0,0 km/h (0 Bft)
02.03.2014 18:20 5,1 C 85 % 1004,3 hPa 0,0 mm W 269 0,0 km/h (0 Bft)
02.03.2014 18:25 5,0 C 86 % 1004,3 hPa 0,0 mm W 269 1,6 km/h (1 Bft)
02.03.2014 18:30 5,0 C 86 % 1004,3 hPa 0,0 mm W 270 1,6 km/h (1 Bft)
02.03.2014 18:35 4,9 C 86 % 1004,3 hPa 0,0 mm W 269 0,0 km/h (0 Bft)
02.03.2014 18:40 4,7 C 86 % 1004,4 hPa 0,0 mm W 270 0,0 km/h (0 Bft)
02.03.2014 18:45 4,3 C 88 % 1004,4 hPa 0,0 mm W 270 0,0 km/h (0 Bft)
02.03.2014 18:50 4,3 C 88 % 1004,3 hPa 0,0 mm W 270 0,0 km/h (0 Bft)
02.03.2014 18:55 4,4 C 88 % 1004,2 hPa 0,0 mm W 270 0,0 km/h (0 Bft)
02.03.2014 19:00 4,4 C 88 % 1004,2 hPa 0,0 mm W 270 0,0 km/h (0 Bft)
02.03.2014 19:05 4,3 C 88 % 1004,2 hPa 0,0 mm W 270 0,0 km/h (0 Bft)
02.03.2014 19:10 4,4 C 88 % 1004,2 hPa 0,0 mm W 270 0,0 km/h (0 Bft)
02.03.2014 19:15 4,4 C 88 % 1004,2 hPa 0,0 mm W 270 1,6 km/h (1 Bft)
02.03.2014 19:20 4,2 C 88 % 1004,2 hPa 0,0 mm W 270 0,0 km/h (0 Bft)
02.03.2014 19:25 4,1 C 89 % 1004,1 hPa 0,0 mm W 270 0,0 km/h (0 Bft)
02.03.2014 19:30 4,1 C 89 % 1004,1 hPa 0,0 mm W 270 0,0 km/h (0 Bft)
02.03.2014 19:35 4,2 C 89 % 1004,1 hPa 0,0 mm W 270 0,0 km/h (0 Bft)
02.03.2014 19:40 4,2 C 89 % 1004,0 hPa 0,0 mm W 270 0,0 km/h (0 Bft)
02.03.2014 19:45 4,2 C 89 % 1003,8 hPa 0,0 mm W 270 0,0 km/h (0 Bft)
02.03.2014 19:50 4,1 C 89 % 1003,8 hPa 0,0 mm W 270 0,0 km/h (0 Bft)
02.03.2014 19:55 3,7 C 89 % 1003,7 hPa 0,0 mm W 270 0,0 km/h (0 Bft)
02.03.2014 20:00 3,3 C 89 % 1003,6 hPa 0,0 mm W 270 1,6 km/h (1 Bft)
02.03.2014 20:05 3,1 C 89 % 1003,7 hPa 0,0 mm W 270 0,0 km/h (0 Bft)
02.03.2014 20:10 2,8 C 89 % 1003,6 hPa 0,0 mm W 270 3,2 km/h (1 Bft)
02.03.2014 20:15 2,8 C 90 % 1003,7 hPa 0,0 mm W 270 1,6 km/h (1 Bft)
02.03.2014 20:20 2,5 C 90 % 1003,6 hPa 0,0 mm W 270 0,0 km/h (0 Bft)
02.03.2014 20:25 2,2 C 90 % 1003,6 hPa 0,0 mm W 270 0,0 km/h (0 Bft)
02.03.2014 20:30 2,0 C 90 % 1003,6 hPa 0,0 mm W 270 0,0 km/h (0 Bft)
02.03.2014 20:35 1,8 C 90 % 1003,5 hPa 0,0 mm W 270 0,0 km/h (0 Bft)
02.03.2014 20:40 1,8 C 90 % 1003,5 hPa 0,0 mm W 270 0,0 km/h (0 Bft)
02.03.2014 20:45 2,1 C 91 % 1003,5 hPa 0,0 mm W 270 1,6 km/h (1 Bft)
02.03.2014 20:50 1,5 C 90 % 1003,5 hPa 0,0 mm W 270 0,0 km/h (0 Bft)
02.03.2014 20:55 1,2 C 91 % 1003,4 hPa 0,0 mm W 270 0,0 km/h (0 Bft)
02.03.2014 21:00 1,2 C 91 % 1003,4 hPa 0,0 mm W 270 0,0 km/h (0 Bft)
02.03.2014 21:05 1,2 C 91 % 1003,3 hPa 0,0 mm W 270 3,2 km/h (1 Bft)
02.03.2014 21:10 1,1 C 91 % 1003,3 hPa 0,0 mm W 270 1,6 km/h (1 Bft)
02.03.2014 21:15 1,1 C 91 % 1003,2 hPa 0,0 mm W 270 0,0 km/h (0 Bft)
02.03.2014 21:20 1,1 C 91 % 1003,2 hPa 0,0 mm W 270 0,0 km/h (0 Bft)
02.03.2014 21:25 1,1 C 91 % 1003,2 hPa 0,0 mm W 270 0,0 km/h (0 Bft)
02.03.2014 21:30 1,1 C 91 % 1003,1 hPa 0,0 mm W 270 0,0 km/h (0 Bft)
02.03.2014 21:35 0,9 C 91 % 1003,0 hPa 0,0 mm W 270 0,0 km/h (0 Bft)
02.03.2014 21:40 0,8 C 91 % 1002,9 hPa 0,0 mm W 270 0,0 km/h (0 Bft)
02.03.2014 21:45 0,8 C 92 % 1002,9 hPa 0,0 mm W 270 1,6 km/h (1 Bft)
02.03.2014 21:50 0,5 C 91 % 1003,0 hPa 0,0 mm W 270 0,0 km/h (0 Bft)
02.03.2014 21:55 0,4 C 92 % 1002,9 hPa 0,0 mm W 270 0,0 km/h (0 Bft)
02.03.2014 22:00 0,3 C 92 % 1002,9 hPa 0,0 mm W 270 0,0 km/h (0 Bft)
02.03.2014 22:05 0,4 C 92 % 1002,7 hPa 0,0 mm W 270 0,0 km/h (0 Bft)
02.03.2014 22:10 0,3 C 92 % 1002,9 hPa 0,0 mm W 270 0,0 km/h (0 Bft)
02.03.2014 22:15 0,1 C 92 % 1002,7 hPa 0,0 mm W 270 0,0 km/h (0 Bft)
02.03.2014 22:20 -0,1 C 92 % 1002,7 hPa 0,0 mm W 270 1,6 km/h (1 Bft)
02.03.2014 22:25 0,1 C 92 % 1002,5 hPa 0,0 mm W 270 3,2 km/h (1 Bft)
02.03.2014 22:30 0,2 C 92 % 1002,4 hPa 0,0 mm W 270 3,2 km/h (1 Bft)
02.03.2014 22:35 -0,4 C 92 % 1002,3 hPa 0,0 mm W 270 0,0 km/h (0 Bft)
02.03.2014 22:40 -0,6 C 92 % 1002,2 hPa 0,0 mm W 270 0,0 km/h (0 Bft)
02.03.2014 22:45 -0,6 C 92 % 1002,1 hPa 0,0 mm W 270 1,6 km/h (1 Bft)
02.03.2014 22:50 -0,4 C 92 % 1002,1 hPa 0,0 mm W 270 0,0 km/h (0 Bft)
02.03.2014 22:55 -0,6 C 92 % 1002,0 hPa 0,0 mm W 270 1,6 km/h (1 Bft)
02.03.2014 23:00 -0,6 C 92 % 1001,9 hPa 0,0 mm W 270 0,0 km/h (0 Bft)
02.03.2014 23:05 -0,7 C 92 % 1001,8 hPa 0,0 mm W 270 0,0 km/h (0 Bft)
02.03.2014 23:10 -0,6 C 92 % 1001,8 hPa 0,0 mm W 270 0,0 km/h (0 Bft)
02.03.2014 23:15 -0,7 C 92 % 1001,7 hPa 0,0 mm W 270 0,0 km/h (0 Bft)
02.03.2014 23:20 -0,9 C 92 % 1001,6 hPa 0,0 mm W 270 1,6 km/h (1 Bft)
02.03.2014 23:25 -0,8 C 92 % 1001,5 hPa 0,0 mm W 270 0,0 km/h (0 Bft)
02.03.2014 23:30 -1,2 C 92 % 1001,4 hPa 0,0 mm W 270 0,0 km/h (0 Bft)
02.03.2014 23:35 -1,6 C 92 % 1001,3 hPa 0,0 mm W 270 0,0 km/h (0 Bft)
02.03.2014 23:40 -1,4 C 92 % 1001,2 hPa 0,0 mm W 270 3,2 km/h (1 Bft)
02.03.2014 23:45 -1,2 C 93 % 1001,2 hPa 0,0 mm W 270 3,2 km/h (1 Bft)
02.03.2014 23:50 -1,0 C 93 % 1001,0 hPa 0,0 mm W 270 1,6 km/h (1 Bft)
02.03.2014 23:55 -1,5 C 92 % 1000,9 hPa 0,0 mm W 270 0,0 km/h (0 Bft)
_ Min-Zeit 23:35 16:20 23:55 - - - 00:00
Minimum _ -1,6 C 79 % 1000,9 hPa - - - 0,0 km/h (0 Bft)
_ Max-Zeit 15:45 23:45 12:00 00:00 - - 09:30
Maximum _ 6,7 C 93 % 1005,3 hPa 0,0 mm - - 9,7 km/h
W (2 Bft)
Durchschnitt _ 3,6 C 88 % 1003,5 hPa #0,0 mm W - 2,5 km/h (1 Bft)